JILIN-01 GAOFEN 2A (44777 NORAD) Tracking and Keplerian Element Data

This shows tracking and keplerian element data for the satellite.

Feedback or suggestion? Click here.




ElementValue
Catalog44777
NameJILIN-01 GAOFEN 2A
Epoch Orbit338
Epoch Day339.56704198
Epoch Year2019
RAAN43.973
Inclination97.536
Eccentricity0.0011924
Argument of Perigee179.4019
Mean Anonmoly318.0677
Mean Motion15.09096105
Decay Rate-1.49E-06
L11 44777U 19075A 19339.56704198 -.00000149 00000-0 -53990-5 0 9993
L22 44777 97.5360 43.9730 0011924 179.4019 318.0677 15.09096105 3387

Live tracking and technical data element details for JILIN-01 GAOFEN 2A (NORAD 44777). JILIN-01 GAOFEN 2A can be tracked NOW for your location showing map with azimuth and elevation plus other details from your city location.

Track the satellite on the map from your city or location and see movement details for azimuth, elevation, latitude, longitude, range, height, and movement on the map or in text.







IsCatalogInMostPopularTable: catalog: 44777, numindb: 5
Update: records affected: 1



GetName: 44777 JILIN-01 GAOFEN 2A

Hit Count: updated at: Thu, 05 Dec 2019 16:44:09 GMT